Home   Weather   Cape Canaveral   Past weeks

Flag for USA Past Weather in Cape Canaveral, Florida, USA — Yesterday and Last 2 Weeks

80 °F


Feels Like: 82 °F
Forecast: 71 / 83 °F
Wind: 5 mph from West

Location: Cape Kennedy

Current Time: Oct 21, 2016 at 7:50:57 PM

Latest Report: Oct 21, 2016 at 6:58 PM

Visibility: 10 mi

Pressure: 29.77 "Hg

Humidity: 65%

Dew Point: 67 °F

Location of Cape CanaveralLocation

Past Weather in Cape Canaveral — Graph


Cape Canaveral Temperature Yesterday

Maximum temperature yesterday: 84 °F (at 2:58 PM)
Minimum temperature yesterday: 73 °F (at 3:58 AM)
Average temperature yesterday: 78 °F

High & Low Weather Summary for the Past Weeks

High89 °F (Oct 8, 3:58 PM)95% (Oct 7, 3:58 PM)30.16 "Hg (Oct 7, 3:58 PM)
Low70 °F (Oct 21, 7:58 AM)49% (Oct 10, 9:58 AM)29.43 "Hg (Oct 7, 3:58 PM)
Average79 °F69%29.99 "Hg
* Reported Oct 7 3:58 PM — Oct 21 5:58 PM, Cape Canaveral, Weather by CustomWeather, © 2016

Note: Actual official high and low records may vary slightly from our data, if they occured in-between our weather recording intervals... More about our weather records


Cape Canaveral Weather History for the Previous 24 Hours

Scroll right to see more
Time TempWeatherWind HumidityBarometerVisibility
5:58 PM
Fri, Oct 21
84 °FSunny.8 mph56%29.75 "Hg10 mi
4:58 PM86 °FPassing clouds.8 mph50%29.75 "Hg10 mi
3:58 PM85 °FPassing clouds.13 mph50%29.75 "Hg10 mi
2:58 PM84 °FPassing clouds.13 mph52%29.76 "Hg10 mi
1:58 PM84 °FSunny.14 mph50%29.78 "Hg10 mi
12:58 PM83 °FSunny.15 mph49%29.80 "Hg10 mi
11:58 AM80 °FSunny.16 mph60%29.83 "Hg10 mi
10:58 AM78 °FSunny.15 mph70%29.84 "Hg10 mi
9:58 AM74 °FSunny.12 mph79%29.84 "Hg10 mi
8:58 AM71 °FPassing clouds.13 mph91%29.84 "Hg10 mi
7:58 AM70 °FLow clouds.12 mph94%29.83 "Hg10 mi
6:58 AM71 °FClear.12 mph95%29.81 "Hg10 mi
5:58 AM71 °FClear.9 mph93%29.81 "Hg10 mi
4:58 AM71 °FFog.9 mph92%29.81 "Hg5 mi
3:58 AM71 °FClear.6 mph89%29.82 "Hg7 mi
2:58 AM72 °FClear.8 mph87%29.84 "Hg9 mi
1:58 AM74 °FClear.6 mph71%29.85 "Hg10 mi
12:58 AM74 °FPassing clouds.7 mph73%29.85 "Hg10 mi
11:58 PM
Thu, Oct 20
76 °FClear.7 mph65%29.86 "Hg10 mi
10:58 PM76 °FClear.7 mph68%29.87 "Hg10 mi
9:58 PM77 °FPassing clouds.8 mph69%29.87 "Hg10 mi
8:58 PM77 °FPassing clouds.8 mph70%29.88 "Hg10 mi
7:58 PM75 °FClear.5 mph71%29.88 "Hg10 mi
Weather by CustomWeather, © 2016

See weather overviewHow to use our weather pages